Retour au catalogue

CZ-6A DEB

ActifPO
NORAD 61463·DEBRIS·🇨🇳 China

Lancé Aug 6, 2024 depuis Taiyuan Satellite Launch Center

Loading…

Prochains Passages (prochaines 24 heures)

TLE

FraisSource: Space-Track

Époque: Sep 14, 2026, 11:30 UTC

1 61463U 24140ZV  26257.47922929  .00001434  00000-0  63300-3 0  9994
2 61463  89.0046 265.3031 0047690 252.9369 106.6595 14.22242849103397

Suivez CZ-6A DEB en temps réel avec AllMySat

Download on the App Store